Henderson, NV

7:38 AM PDT on April 29, 2017 (GMT -0700)
Henderson

Weather History for KHND - October, 2011

Change the Weather History Date:

Tuesday, October 18, 2011

  Actual Average (KLAS) Record (KLAS)
Temperature  
Mean Temperature 69 °F -  
Max Temperature 83 °F 79 °F 95 °F (1958)
Min Temperature 55 °F 52 °F 35 °F (1938)
Cooling Degree Days 4    
Growing Degree Days 19 (Base 50)    
Moisture  
Dew Point 23 °F    
Average Humidity 20    
Maximum Humidity 34    
Minimum Humidity 7    
Precipitation  
Precipitation 0.00 in - - ()
Sea Level Pressure  
Sea Level Pressure 30.02 in    
Wind  
Wind Speed 5 mph (East)    
Max Wind Speed 10 mph    
Max Gust Speed -    
Visibility 10 miles    
Events      
Averages and records for this station are not official NWS values.
T = Trace of Precipitation, MM = Missing Value Source: NWS Daily Summary

Daily Weather History Graph

Daily Weather History Graph

Search for Another Location

Airport or City:

Trip Planner

Search our weather history database for the weather conditions in past years. The results will help you decide how hot, cold, wet, or windy it might be!

Date:

Astronomy

Oct. 18, 2011 Rise Set
Actual Time 6:49 AM PDT 6:01 PM PDT
Civil Twilight 6:23 AM PDT 6:26 PM PDT
Nautical Twilight 5:54 AM PDT 6:56 PM PDT
Astronomical Twilight 5:24 AM PDT 7:26 PM PDT
Moon 10:52 PM PDT (10/18) 12:37 PM PDT (10/18)
Length of Visible Light 12h 03m
Length of Day
11h 11m
Waning Gibbous, 64% of the Moon is Illuminated
Oct 18
Waning Gibbous
Oct 19
Last Quarter
Oct 26
New
Nov 2
First Quarter
Nov 10
Full

Hourly Weather History & Observations

Time (PDT) Temp. Dew Point Humidity Pressure Visibility Wind Dir Wind Speed Gust Speed Precip Events Conditions
12:56 AM 59.9 °F 30.0 °F 32% 30.04 in 10.0 mi South 4.6 mph - N/A   Clear
1:56 AM 59.0 °F 29.1 °F 32% 30.05 in 10.0 mi South 4.6 mph - N/A   Clear
2:56 AM 59.9 °F 27.1 °F 29% 30.05 in 10.0 mi Calm Calm - N/A   Clear
3:56 AM 57.9 °F 27.1 °F 31% 30.05 in 10.0 mi Calm Calm - N/A   Clear
4:56 AM 55.9 °F 28.0 °F 34% 30.06 in 10.0 mi Calm Calm - N/A   Clear
5:56 AM 55.9 °F 28.0 °F 34% 30.08 in 10.0 mi East 5.8 mph - N/A   Clear
6:56 AM 55.9 °F 27.1 °F 33% 30.09 in 10.0 mi South 3.5 mph - N/A   Clear
8:56 AM 68.9 °F 28.0 °F 22% 30.12 in 10.0 mi Calm Calm - N/A   Clear
9:56 AM 72.9 °F 23.0 °F 15% 30.11 in 10.0 mi NNE 10.4 mph - N/A   Clear
10:56 AM 74.8 °F 20.1 °F 13% 30.10 in 10.0 mi NNE 10.4 mph - N/A   Clear
11:56 AM 77.9 °F 20.1 °F 12% 30.08 in 10.0 mi North 9.2 mph - N/A   Clear
12:56 PM 81.0 °F 17.1 °F 9% 30.04 in 10.0 mi NE 9.2 mph - N/A   Clear
1:56 PM 82.9 °F 13.1 °F 7% 30.01 in 10.0 mi NNE 10.4 mph - N/A   Clear
2:56 PM 82.9 °F 15.1 °F 8% 29.98 in 10.0 mi NE 10.4 mph - N/A   Clear
3:56 PM 83.8 °F 15.1 °F 8% 29.96 in 10.0 mi NE 10.4 mph - N/A   Clear
4:56 PM 82.9 °F 16.2 °F 8% 29.95 in 10.0 mi NE 9.2 mph - N/A   Clear
5:56 PM 79.9 °F 18.1 °F 10% 29.94 in 10.0 mi NE 6.9 mph - N/A   Clear
6:56 PM 75.9 °F 20.1 °F 12% 29.95 in 10.0 mi Calm Calm - N/A   Clear
7:56 PM 68.9 °F 25.2 °F 19% 29.95 in 10.0 mi South 4.6 mph - N/A   Clear
9:56 PM 64.9 °F 26.1 °F 23% 29.93 in 10.0 mi SSE 8.1 mph - N/A   Clear
10:56 PM 61.9 °F 24.1 °F 24% 29.92 in 10.0 mi SSE 9.2 mph - N/A   Clear
11:56 PM 61.0 °F 24.1 °F 24% 29.90 in 10.0 mi SSE 8.1 mph - N/A   Clear